User: anonymous   Login
Location: Poughquag
(41.6090°N, 73.6820°W)
Time: 22:26:55
(UTC-04:00)
Language:

EO-79 - Orbit

View from above orbital plane
View from above orbital plane
View from above satellite
View from above satellite

Ground track
Ground track

The orbit data is extracted from the following two-line orbital elements,

1 40025U 14033R   24167.61573058  .00006990  00000-0  56998-3 0  9991
2 40025  98.0376 128.3231 0011901 163.0380 197.1242 14.99741486542649
Epoch (UTC): 15 June 2024 14:46:39
Eccentricity: 0.0011901
inclination: 98.0376°
perigee height: 559 km
apogee height: 576 km
right ascension of ascending node: 128.3231°
argument of perigee: 163.0380°
revolutions per day: 14.99741486
mean anomaly at epoch: 197.1242°
orbit number at epoch: 54264

The dashed part of the orbit path shows where the satellite is in the earth's shadow,  

DLR